Location: Kosice
(0.0000°N, 21.2500°E)
Time: 18:19:45
(UTC+01:00)

Cosmos 1655 Rocket - Pass Details

Date: 24 January 2021
Orbit: 971 x 1006 km, 83.0° (Epoch: 01 March)

Event Time Altitude Azimuth Distance (km) Brightness Sun altitude
Rises 18:38:24 0° 179° (S) 3,703 7.3 -12.1°
Reaches altitude 10° 18:40:57 10° 177° (S) 2,747 6.6 -12.7°
Maximum altitude 18:47:14 73° 93° (E) 1,022 3.9 -14.2°
Drops below altitude 10° 18:53:26 10° 9° (N) 2,714 6.1 -15.6°
Sets 18:55:55 0° 7° (N) 3,655 6.7 -16.2°
